This demonstration page uses our WeatherBlox Daily Observations layout. Learn more.

Left ArrowRight Arrow

Hourly Observations for June 13, 2017

Temp ( °F °C ) Dew Point ( °F °C ) Humidity (%) Winds ( mph kmh ) Pressure ( in mb ) Visibility ( mi km ) Precip ( " mm )
12:15 am 00:15 Clear 80 26.6 65 18.2 60 60 S 21 33 29.59 1002 10 16.0934 0 0
12:35 am 00:35 Clear 79 26.2 65 18.1 61 61 SSE 16 26 29.59 1002 10 16.0934 0 0
12:55 am 00:55 Clear 78 25.6 65 18.2 64 64 SSE 25 41 29.59 1002 10 16.0934 0 0
1:15 am 01:15 Clear 78 25.7 65 18.2 63 63 SSE 21 33 29.59 1002 10 16.0934 0 0
1:35 am 01:35 Clear 77 25 65 18.3 66 66 SSE 17 28 29.59 1002 10 16.0934 0 0
1:55 am 01:55 Clear 77 24.8 65 18.2 67 67 SSE 21 33 29.59 1002 10 16.0934 0 0
2:15 am 02:15 Clear 76 24.5 65 18.1 68 68 SSE 21 33 29.59 1002 10 16.0934 0 0
2:35 am 02:35 Clear 76 24.3 65 18.2 69 69 S 22 35 29.59 1002 10 16.0934 0 0
2:55 am 02:55 Clear 76 24.2 64 18 68 68 S 18 30 29.56 1001 10 16.0934 0 0
3:15 am 03:15 Clear 75 24 64 17.8 68 68 S 21 33 29.56 1001 10 16.0934 0 0
3:35 am 03:35 Clear 75 23.7 64 17.7 69 69 S 22 35 29.56 1001 10 16.0934 0 0
3:55 am 03:55 Clear 74 23.5 64 17.7 70 70 S 18 30 29.59 1002 10 16.0934 0 0
4:15 am 04:15 Clear 74 23.2 64 17.6 71 71 S 18 30 29.59 1002 10 16.0934 0 0
4:35 am 04:35 Clear 73 23 64 17.7 72 72 S 21 33 29.59 1002 10 16.0934 0 0
4:55 am 04:55 Clear 73 22.6 64 17.7 74 74 S 17 28 29.59 1002 10 16.0934 0 0
5:15 am 05:15 Clear 72 22.3 64 17.6 75 75 S 16 26 29.59 1002 10 16.0934 0 0
5:35 am 05:35 Clear 72 22.2 64 17.6 75 75 S 15 24 29.59 1002 10 16.0934 0 0
5:55 am 05:55 Clear 72 22 64 17.6 76 76 S 16 26 29.59 1002 10 16.0934 0 0
6:15 am 06:15 Sunny 71 21.7 64 17.6 78 78 S 14 22 29.59 1002 10 16.0934 0 0
6:35 am 06:35 Sunny 71 21.7 64 17.6 78 78 S 15 24 29.59 1002 10 16.0934 0 0
6:55 am 06:55 Sunny 71 21.8 64 17.6 77 77 S 18 30 29.59 1002 10 16.0934 0 0
7:15 am 07:15 Sunny 72 22.2 64 17.7 76 76 S 15 24 29.62 1003 10 16.0934 0 0
7:35 am 07:35 Sunny 73 22.5 64 17.6 74 74 S 18 30 29.62 1003 10 16.0934 0 0
7:55 am 07:55 Sunny 73 23 64 17.7 72 72 S 18 30 29.59 1002 10 16.0934 0 0
8:15 am 08:15 Sunny 74 23.5 64 17.7 70 70 S 18 30 29.59 1002 10 16.0934 0 0
8:35 am 08:35 Sunny 75 23.8 64 17.5 68 68 S 23 37 29.56 1001 10 16.0934 0 0
8:55 am 08:55 Sunny 76 24.3 64 17.6 66 66 S 18 30 29.56 1001 10 16.0934 0 0
9:15 am 09:15 Sunny 76 24.7 64 17.6 65 65 S 21 33 29.56 1001 10 16.0934 0 0
9:35 am 09:35 Sunny 78 25.4 64 17.7 62 62 S 20 31 29.56 1001 10 16.0934 0 0
9:55 am 09:55 Sunny 79 26 64 17.6 60 60 S 20 31 29.56 1001 10 16.0934 0 0
10:15 am 10:15 Sunny 80 26.5 64 17.5 58 58 S 20 31 29.56 1001 10 16.0934 0 0
10:35 am 10:35 Sunny 81 27 63 17.2 55 55 S 21 33 29.53 1000 10 16.0934 0 0
10:55 am 10:55 Sunny 81 27.4 63 17.3 54 54 S 23 37 29.5 999 10 16.0934 0 0
11:15 am 11:15 Sunny 82 28 64 17.5 53 53 S 22 35 29.5 999 10 16.0934 0 0
11:35 am 11:35 Sunny 83 28.5 63 17 50 50 S 15 24 29.5 999 10 16.0934 0 0
11:55 am 11:55 Sunny 84 29.1 63 17.1 48 48 SSW 17 28 29.5 999 10 16.0934 0 0
12:15 pm 12:15 Sunny 85 29.5 63 17 47 47 S 20 31 29.5 999 10 16.0934 0 0
12:35 pm 12:35 Sunny 86 30 62 16.5 44 44 S 20 31 29.5 999 10 16.0934 0 0
12:55 pm 12:55 Sunny 87 30.3 62 16.6 44 44 S 18 30 29.5 999 10 16.0934 0 0
1:15 pm 13:15 Sunny 88 30.9 60 15.8 40 40 SSW 21 33 29.5 999 10 16.0934 0 0
1:35 pm 13:35 Sunny 89 31.6 60 15.3 37 37 S 25 41 29.47 998 10 16.0934 0 0
1:55 pm 13:55 Sunny 90 32.1 60 15.4 36 36 S 22 35 29.44 997 10 16.0934 0 0
2:15 pm 14:15 Sunny 91 33 58 14.2 32 32 S 23 37 29.44 997 10 16.0934 0 0
2:35 pm 14:35 Sunny 92 33.4 56 13.6 30 30 S 16 26 29.44 997 10 16.0934 0 0
2:55 pm 14:55 Sunny 93 33.8 53 11.7 26 26 S 22 35 29.44 997 10 16.0934 0 0
3:15 pm 15:15 Sunny 94 34.3 48 8.8 21 21 SW 26 43 29.44 997 10 16.0934 0 0
3:35 pm 15:35 Sunny 94 34.7 49 9.7 22 22 SSW 22 35 29.41 996 10 16.0934 0 0
3:55 pm 15:55 Sunny 95 35 41 5 15 15 SSW 31 50 29.41 996 10 16.0934 0 0
4:15 pm 16:15 Sunny 95 35 41 5 15 15 SSW 23 37 29.41 996 10 16.0934 0 0
4:35 pm 16:35 Sunny 95 35 39 3.8 14 14 SSW 21 33 29.38 995 10 16.0934 0 0
4:55 pm 16:55 Sunny 95 35.1 37 2.9 13 13 SW 17 28 29.38 995 7 11.26538 0 0
5:15 pm 17:15 Sunny 95 35.1 37 3 13 13 SW 23 37 29.38 995 10 16.0934 0 0
5:35 pm 17:35 Sunny 95 35 38 3.4 14 14 WSW 17 28 29.38 995 10 16.0934 0 0
5:55 pm 17:55 Sunny 94 34.6 39 3.7 14 14 WSW 17 28 29.38 995 10 16.0934 0 0
6:15 pm 18:15 Sunny 94 34.3 39 3.7 15 15 WSW 18 30 29.38 995 10 16.0934 0 0
6:35 pm 18:35 Sunny 93 34.1 38 3.4 14 14 WSW 20 31 29.41 996 10 16.0934 0 0
6:55 pm 18:55 Sunny 93 33.7 38 3.6 15 15 W 22 35 29.41 996 10 16.0934 0 0
7:15 pm 19:15 Sunny 91 32.7 38 3.3 16 16 W 22 35 29.35 994 10 16.0934 0 0
7:35 pm 19:35 Sunny 90 32.3 37 2.9 15 15 W 14 22 29.41 996 10 16.0934 0 0
7:55 pm 19:55 Sunny 89 31.7 39 3.9 17 17 W 12 19 29.41 996 10 16.0934 0 0
8:15 pm 20:15 Sunny 88 30.9 44 6.8 22 22 NW 7 11 29.41 996 10 16.0934 0 0
8:35 pm 20:35 Sunny 86 30 46 8 25 25 Calm 29.44 997 10 16.0934 0 0
8:55 pm 20:55 Sunny 85 29.5 50 9.8 29 29 SE 17 28 29.47 998 10 16.0934 0 0
9:15 pm 21:15 Clear 86 30 43 6.1 22 22 E 3 6 29.47 998 10 16.0934 0 0
9:35 pm 21:35 Clear 82 28 49 9.6 32 32 SE 6 9 29.44 997 10 16.0934 0 0
9:55 pm 21:55 Clear 80 26.5 55 12.9 43 43 SSE 17 28 29.5 999 10 16.0934 0 0
10:15 pm 22:15 Clear with Nearby Thunderstorms 74 23.3 53 11.7 48 48 SSE 16 26 29.59 1002 10 16.0934 0 0
10:35 pm 22:35 Clear with Nearby Thunderstorms 72 22.2 56 13.3 57 57 S 17 28 29.56 1001 10 16.0934 0 0
10:55 pm 22:55 Clear with Nearby Thunderstorms 71 21.4 56 13.2 60 60 S 17 28 29.62 1003 10 16.0934 0 0
11:15 pm 23:15 Clear with Light Rain 71 21.8 55 12.9 57 57 S 13 20 29.59 1002 10 16.0934 0 0
11:35 pm 23:35 Partly Cloudy 72 22.1 54 12.1 53 53 S 14 22 29.59 1002 10 16.0934 0 0
11:55 pm 23:55 Partly Cloudy 76 24.6 55 12.6 47 47 S 10 17 29.59 1002 10 16.0934 0 0

Powered by AerisWeather